Flag for Ukraine Weather past 2 weeks in Kryvyi Rih, Ukraine

Now
37 °F

Clear.


Feels Like: 37 °F
Forecast: 32 / 43 °F
Wind: No wind

Location: Krivyy Rih / Dnipropetrovs'k

Current Time: Mar 6, 2015 at 7:40:03 PM

Latest Report: Mar 6, 2015 at 7:00 PM


Visibility: 10 mi

Pressure: 30.39 "Hg

Humidity: 60%

Dew point: 25 °F

Location of Kryvyi RihLocation

Historic Weather in Kryvyi Rih — Graph

°F

Kryvyi Rih temperature yesterday

Maximum temperature yesterday: 45 °F (at 3:00 PM)
Minimum temperature yesterday: 28 °F (at 6:00 AM)
Average temperature yesterday: 36 °F

Past Weeks' High & Low Weather Summary

 TemperatureHumidityPressure
High57 °F (Feb 27, 1:00 PM)100% (Feb 26, 5:00 PM)30.39 "Hg (Feb 26, 5:00 PM)
Low23 °F (Feb 20, 5:00 AM)39% (Feb 21, 5:00 PM)29.83 "Hg (Mar 3, 3:00 PM)
Average37 °F78%30.08 "Hg
* Reported Feb 19 6:00 PM — Mar 6 6:30 PM, Kryvyi Rih, Weather by CustomWeather, © 2015

Note: Actual official high and low records may vary slightly from our data, if they occured in-between our weather recording intervals... More about our weather records

Advertising

Kryvyi Rih weather history for previous 24 hours

 ConditionsComfort  
Time TempWeatherWind HumidityBarometerVisibility
6:30 PM
Fri, Mar 6
39 °FClear.No wind61%30.39 "Hg10 mi
6:00 PM39 °FClear.No wind61%30.39 "Hg10 mi
5:30 PM41 °FSunny.No wind57%30.39 "Hg10 mi
5:00 PM41 °FSunny.No wind57%30.39 "Hg10 mi
4:30 PM43 °FSunny.No wind49%30.36 "Hg10 mi
4:00 PM43 °FSunny.No wind49%30.36 "Hg10 mi
3:30 PM43 °FSunny.No wind49%30.36 "Hg10 mi
3:00 PM43 °FSunny.No wind49%30.36 "Hg10 mi
2:30 PM43 °FSunny.No wind53%30.39 "Hg10 mi
2:00 PM43 °FSunny.No wind53%30.39 "Hg10 mi
1:30 PM43 °FSunny.No wind53%30.39 "Hg10 mi
1:00 PM43 °FSunny.No wind53%30.39 "Hg10 mi
12:30 PM41 °FSunny.No wind66%30.39 "Hg10 mi
12:00 PM41 °FSunny.No wind66%30.39 "Hg10 mi
11:30 AM39 °FSunny.1 mph75%30.39 "Hg10 mi
11:00 AM39 °FSunny.No wind75%30.39 "Hg10 mi
10:30 AM37 °FSunny.No wind75%30.39 "Hg10 mi
10:00 AM37 °FSunny.No wind75%30.39 "Hg10 mi
9:30 AM36 °FSunny.No wind81%30.39 "Hg10 mi
9:00 AM36 °FSunny.No wind81%30.39 "Hg10 mi
8:30 AM30 °FSunny.No wind93%30.39 "Hg10 mi
8:00 AM30 °FSunny.No wind93%30.39 "Hg10 mi
7:30 AM28 °FSunny.No wind93%30.39 "Hg10 mi
7:00 AM28 °FSunny.No wind93%30.36 "Hg10 mi
6:30 AM28 °FSunny.No wind86%30.36 "Hg10 mi
6:00 AM28 °FClear.No wind86%30.36 "Hg10 mi
5:30 AM30 °FClear.No wind86%30.36 "Hg10 mi
5:00 AM30 °FClear.No wind86%30.36 "Hg10 mi
4:30 AM32 °FClear.No wind80%30.36 "Hg10 mi
4:00 AM32 °FClear.No wind80%30.36 "Hg10 mi
3:30 AM32 °FClear.No wind80%30.33 "Hg10 mi
3:00 AM32 °FClear.No wind80%30.33 "Hg10 mi
2:30 AM34 °FClear.No wind81%30.33 "Hg10 mi
2:00 AM34 °FClear.No wind81%30.36 "Hg10 mi
1:30 AM34 °FClear.No wind81%30.36 "Hg10 mi
1:00 AM34 °FClear.No wind81%30.36 "Hg10 mi
12:30 AM34 °FClear.No wind81%30.36 "Hg10 mi
12:00 AM34 °FClear.No wind81%30.36 "Hg10 mi
11:30 PM
Thu, Mar 5
34 °FClear.No wind81%30.36 "Hg10 mi
11:00 PM34 °FClear.1 mph81%30.33 "Hg10 mi
10:30 PM34 °FClear.1 mph81%30.33 "Hg10 mi
10:00 PM34 °FClear.3 mph81%30.33 "Hg10 mi
9:30 PM34 °FClear.3 mph75%30.33 "Hg10 mi
9:00 PM34 °FClear.1 mph75%30.33 "Hg10 mi
8:30 PM37 °FClear.No wind65%30.33 "Hg10 mi
8:00 PM37 °FPassing clouds.No wind65%30.33 "HgN/A
7:30 PM37 °FPassing clouds.No wind65%30.30 "HgN/A
7:00 PM37 °FPassing clouds.No wind65%30.30 "HgN/A
Weather by CustomWeather, © 2015

See weather overviewHow to use our weather pages